Weather Roundup
Issued by NWS Chicago, IL

Home | Current Version | Previous Version | Graphics & Text | Print | Product List | Glossary On
Versions: 1 2 3 4 5 6 7 8 9 10 11 12 13 14 15 16 17 18 19 20 21 22 23 24 25 26 27 28 29 30 31 32 33 34 35 36 37 38 39 40 41 42 43 44 45 46 47 48 49 50
225
NZUS59 KLOT 232208
HRRLOT

CHICAGO AREA WEATHER ROUNDUP
NATIONAL WEATHER SERVICE CHICAGO/ROMEOVILLE IL
400 PM CST MON JAN 23 2017

NOTE: "FAIR" INDICATES FEW OR NO CLOUDS BELOW 12,000 FEET WITH NO
SIGNIFICANT WEATHER AND/OR OBSTRUCTIONS TO VISIBILITY.

* THESE STATIONS ARE NOT UNDER NWS QUALITY CONTROL. THEY ALSO MAY NOT
  REPORT WEATHER SUCH AS PRECIPITATION OR FOG.

ILZ005-006-012>014-019>023-232300-
NORTHEAST ILLINOIS

CITY           SKY/WX    TMP DP  RH WIND       PRES   REMARKS
OHARE          CLOUDY    42  35  76 NW9       29.74S
MIDWAY         MOCLDY    43  34  70 NW12      29.75R
AURORA         CLOUDY    41  36  82 NW9       29.77R
LANSING*       CLOUDY    40  37  89 N6        29.75R
JOLIET*        CLOUDY    43  37  79 NW6       29.77R
WAUKEGAN       CLOUDY    42  37  82 NW6       29.75R
DUPAGE AIRPORT CLOUDY    41  34  76 NW8       29.75S
WHEELING       CLOUDY    42  35  76 NW7       29.76R
KANKAKEE*      CLOUDY    40  35  80 NW7       29.76R
MORRIS*        CLOUDY    41  36  81 NW3       29.76S
LEWIS AIRPORT* CLOUDY    41  37  88 N8        29.76S
NORTHERLY ISL    N/A     41  34  76 NW6         N/A
$$

WIZ051-052-058>065-066-070>072-232300-
SOUTHEAST WISCONSIN

CITY           SKY/WX    TMP DP  RH WIND       PRES   REMARKS
MILWAUKEE      CLOUDY    43  36  76 NW9       29.76R
KENOSHA*       CLOUDY    42  37  82 NW6       29.75R
RACINE*        CLOUDY    42  36  79 CALM      29.76R
WAUKESHA       CLOUDY    36  36 100 NW9       29.77R
WEST BEND      CLOUDY    37  36  93 NW7       29.76R
$$

INZ001>003-010>013-019-020-232300-
NORTHWEST INDIANA

CITY           SKY/WX    TMP DP  RH WIND       PRES   REMARKS
GARY*          MOCLDY    41  36  81 N12       29.75R
MICHIGAN CITY* NOT AVBL
RENSSELAER*    NOT AVBL
VALPARAISO     CLOUDY    39  37  92 VRB6      29.73S
$$

LMZ740>746-232300-
SOUTHERN LAKE MICHIGAN

STATION/POSITION TIME  SKY/WX   TEMP WIND        PRES    VSBY
                                AIR  DIR/SP/G
                 (UTC)          (F)  (DEG/KT/KT) (MB)    (MI)
HARRISON CRIB    2140            38  340/ 13/ 14   N/A
BURNHAM HARBOR   2200            40  340/  5/ 11   N/A
CALUMET HARBOR   2130            39  330/  7/ 11 1006.7S
BURNS HARBOR     2140            36  320/  5/  7 1008.1R
MICHIGAN CITY    2140            36  310/ 10/ 11   N/A
$$

ABBREVIATIONS USED IN REMARKS
   TC - TEMPERATURE IN CELSIUS
  WCI - WIND CHILL INDEX
   HX - HEAT INDEX
  VSB - VISIBILITY
$$




USA.gov is the U.S. government's official web portal to all federal, state and local government web resources and services.